When you browse on this site, cookies collect data to enhance your experience and personalize the content and advertising you see.
Visit our Privacy Policy to learn more. By continuing to use the site, you agree to this use of cookies and data.
  • în România
  • Lista ţărilor
  • Pe 7 zile
  • Temperatura apei
  • Hartă satelitară
  • Meteo pe hartă
  • Widget-uri
  • user-avatar
    Intrare

    Meteo pe oră la Tirana

    Astăzi, 25 Martie, Luni

    Timp Temperatura Precipitaţii Vânt Presiune Umiditate
    00:00 +13°C° 0 mm 1 m/s 755 mmHg 67%
    01:00 +13°C° 0 mm 1 m/s 755 mmHg 67%
    02:00 +12°C° 0 mm 1 m/s 755 mmHg 66%
    03:00 +12°C° 0 mm 1 m/s 755 mmHg 66%
    04:00 +12°C° 0 mm 1 m/s 754 mmHg 66%
    05:00 +12°C° 0 mm 1 m/s 754 mmHg 64%
    06:00 +13°C° 0 mm 2 m/s 754 mmHg 62%
    07:00 +14°C° 0 mm 2 m/s 754 mmHg 60%
    08:00 +16°C° 0 mm 2 m/s 754 mmHg 53%
    09:00 +17°C° 0 mm 2 m/s 753 mmHg 47%
    10:00 +19°C° 0 mm 2 m/s 753 mmHg 40%
    11:00 +19°C° 0 mm 3 m/s 752 mmHg 40%
    12:00 +20°C° 0 mm 3 m/s 752 mmHg 39%
    13:00 +20°C° 0 mm 3 m/s 752 mmHg 38%
    14:00 +20°C° 0 mm 3 m/s 751 mmHg 41%
    15:00 +19°C° 0 mm 2 m/s 751 mmHg 44%
    16:00 +19°C° 0 mm 2 m/s 750 mmHg 46%
    17:00 +17°C° 0 mm 2 m/s 750 mmHg 52%
    18:00 +15°C° 0 mm 1 m/s 750 mmHg 58%
    19:00 +14°C° 0 mm 1 m/s 750 mmHg 64%
    20:00 +13°C° 0 mm 1 m/s 750 mmHg 63%
    21:00 +13°C° 0 mm 2 m/s 750 mmHg 62%
    22:00 +13°C° 0 mm 2 m/s 750 mmHg 60%
    23:00 +12°C° 0 mm 2 m/s 750 mmHg 58%

    Mâine, 26 Martie, Marţi

    Timp Temperatura Precipitaţii Vânt Presiune Umiditate
    00:00 +12°C° 0 mm 2 m/s 750 mmHg 56%
    01:00 +12°C° 0 mm 2 m/s 749 mmHg 54%
    02:00 +12°C° 0 mm 2 m/s 749 mmHg 53%
    03:00 +12°C° 0 mm 2 m/s 749 mmHg 52%
    04:00 +12°C° 0 mm 2 m/s 749 mmHg 51%
    05:00 +12°C° 0 mm 2 m/s 750 mmHg 51%
    06:00 +13°C° 0 mm 2 m/s 750 mmHg 52%
    07:00 +14°C° 0 mm 2 m/s 750 mmHg 52%
    08:00 +15°C° 0 mm 2 m/s 750 mmHg 48%
    09:00 +17°C° 0 mm 2 m/s 751 mmHg 43%
    10:00 +20°C° 0 mm 1 m/s 751 mmHg 39%
    11:00 +20°C° 0 mm 2 m/s 751 mmHg 38%
    12:00 +20°C° 0 mm 3 m/s 751 mmHg 38%
    13:00 +21°C° 0 mm 4 m/s 751 mmHg 37%
    14:00 +21°C° 0 mm 4 m/s 751 mmHg 39%
    15:00 +20°C° 0 mm 4 m/s 751 mmHg 40%
    16:00 +20°C° 0 mm 4 m/s 751 mmHg 41%
    17:00 +18°C° 0 mm 4 m/s 752 mmHg 46%
    18:00 +17°C° 0 mm 4 m/s 752 mmHg 50%
    19:00 +14°C° 0 mm 4 m/s 753 mmHg 55%
    20:00 +13°C° 0 mm 4 m/s 754 mmHg 55%
    21:00 +13°C° 0 mm 4 m/s 754 mmHg 55%
    22:00 +12°C° 0 mm 4 m/s 755 mmHg 55%
    23:00 +12°C° 0 mm 4 m/s 755 mmHg 54%

    Poimâine, 27 Martie, Miercuri

    Timp Temperatura Precipitaţii Vânt Presiune Umiditate
    00:00 +11°C° 0 mm 4 m/s 755 mmHg 52%
    01:00 +11°C° 0 mm 4 m/s 756 mmHg 51%
    02:00 +9°C° 0 mm 5 m/s 756 mmHg 51%
    03:00 +9°C° 0 mm 5 m/s 756 mmHg 52%
    04:00 +9°C° 0 mm 5 m/s 755 mmHg 52%
    05:00 +10°C° 0 mm 4 m/s 756 mmHg 51%
    06:00 +11°C° 0 mm 4 m/s 756 mmHg 51%
    07:00 +11°C° 0 mm 4 m/s 756 mmHg 51%
    08:00 +13°C° 0 mm 4 m/s 756 mmHg 45%
    09:00 +16°C° 0 mm 3 m/s 756 mmHg 40%
    10:00 +18°C° 0 mm 3 m/s 756 mmHg 35%
    11:00 +19°C° 0 mm 3 m/s 756 mmHg 34%
    12:00 +19°C° 0 mm 2 m/s 756 mmHg 33%
    13:00 +20°C° 0 mm 2 m/s 756 mmHg 32%
    14:00 +19°C° 0.2 mm 2 m/s 756 mmHg 38%
    15:00 +18°C° 0.2 mm 3 m/s 756 mmHg 43%
    16:00 +17°C° 0.2 mm 3 m/s 756 mmHg 49%
    17:00 +16°C° 0.3 mm 2 m/s 756 mmHg 58%
    18:00 +15°C° 0.3 mm 2 m/s 756 mmHg 67%
    19:00 +13°C° 0.3 mm 2 m/s 756 mmHg 76%
    20:00 +13°C° 0.2 mm 1 m/s 757 mmHg 75%
    21:00 +13°C° 0.2 mm 1 m/s 757 mmHg 74%
    22:00 +13°C° 0.2 mm 1 m/s 757 mmHg 73%
    23:00 +13°C° 0.1 mm 1 m/s 757 mmHg 70%

    28 Martie, Joi

    Timp Temperatura Precipitaţii Vânt Presiune Umiditate
    00:00 +12°C° 0.1 mm 2 m/s 757 mmHg 67%
    01:00 +12°C° 0.1 mm 2 m/s 757 mmHg 63%
    02:00 +11°C° 0 mm 3 m/s 757 mmHg 61%
    03:00 +11°C° 0 mm 3 m/s 757 mmHg 59%
    04:00 +11°C° 0 mm 4 m/s 757 mmHg 57%
    05:00 +11°C° 0 mm 4 m/s 757 mmHg 57%
    06:00 +11°C° 0 mm 4 m/s 757 mmHg 56%
    07:00 +11°C° 0 mm 4 m/s 757 mmHg 56%
    08:00 +13°C° 0 mm 5 m/s 757 mmHg 52%
    09:00 +14°C° 0 mm 5 m/s 757 mmHg 47%
    10:00 +15°C° 0 mm 5 m/s 757 mmHg 43%
    11:00 +15°C° 0 mm 5 m/s 757 mmHg 42%
    12:00 +16°C° 0 mm 5 m/s 757 mmHg 41%
    13:00 +16°C° 0 mm 5 m/s 757 mmHg 40%
    14:00 +16°C° 0 mm 5 m/s 757 mmHg 41%
    15:00 +17°C° 0 mm 4 m/s 757 mmHg 41%
    16:00 +15°C° 0 mm 4 m/s 757 mmHg 42%
    17:00 +14°C° 0 mm 4 m/s 757 mmHg 44%
    18:00 +14°C° 0 mm 4 m/s 757 mmHg 46%
    19:00 +13°C° 0 mm 4 m/s 757 mmHg 49%
    20:00 +12°C° 0 mm 4 m/s 758 mmHg 51%
    21:00 +12°C° 0 mm 4 m/s 758 mmHg 52%
    22:00 +11°C° 0 mm 4 m/s 758 mmHg 54%
    23:00 +11°C° 0 mm 4 m/s 759 mmHg 56%

    29 Martie, Vineri

    Timp Temperatura Precipitaţii Vânt Presiune Umiditate
    00:00 +10°C° 0 mm 5 m/s 759 mmHg 57%
    01:00 +10°C° 0 mm 5 m/s 759 mmHg 58%
    02:00 +9°C° 0 mm 5 m/s 759 mmHg 59%
    03:00 +9°C° 0 mm 5 m/s 759 mmHg 60%
    04:00 +8°C° 0 mm 6 m/s 759 mmHg 61%
    05:00 +9°C° 0 mm 6 m/s 759 mmHg 60%
    06:00 +9°C° 0 mm 5 m/s 759 mmHg 59%
    07:00 +9°C° 0 mm 5 m/s 759 mmHg 59%
    08:00 +12°C° 0 mm 5 m/s 759 mmHg 50%
    09:00 +14°C° 0 mm 6 m/s 759 mmHg 42%
    10:00 +15°C° 0 mm 6 m/s 759 mmHg 34%
    11:00 +16°C° 0 mm 6 m/s 759 mmHg 31%
    12:00 +16°C° 0 mm 6 m/s 758 mmHg 29%
    13:00 +17°C° 0 mm 6 m/s 758 mmHg 26%
    14:00 +17°C° 0 mm 6 m/s 758 mmHg 26%
    15:00 +16°C° 0 mm 6 m/s 758 mmHg 26%
    16:00 +16°C° 0 mm 6 m/s 757 mmHg 26%
    17:00 +14°C° 0 mm 5 m/s 758 mmHg 30%
    18:00 +12°C° 0 mm 5 m/s 758 mmHg 34%
    19:00 +9°C° 0 mm 5 m/s 759 mmHg 37%
    20:00 +9°C° 0 mm 5 m/s 759 mmHg 38%
    21:00 +8°C° 0 mm 5 m/s 759 mmHg 40%
    22:00 +7°C° 0 mm 5 m/s 760 mmHg 41%
    23:00 +7°C° 0 mm 5 m/s 760 mmHg 42%

    30 Martie, Sâmbătă

    Timp Temperatura Precipitaţii Vânt Presiune Umiditate
    00:00 +6°C° 0 mm 5 m/s 760 mmHg 42%
    01:00 +6°C° 0 mm 5 m/s 760 mmHg 43%
    02:00 +6°C° 0 mm 5 m/s 760 mmHg 45%
    03:00 +5°C° 0 mm 5 m/s 759 mmHg 46%
    04:00 +5°C° 0 mm 5 m/s 759 mmHg 48%
    05:00 +6°C° 0 mm 5 m/s 759 mmHg 47%
    06:00 +6°C° 0 mm 5 m/s 759 mmHg 46%
    07:00 +7°C° 0 mm 5 m/s 759 mmHg 45%
    08:00 +9°C° 0 mm 5 m/s 759 mmHg 38%
    09:00 +12°C° 0 mm 5 m/s 759 mmHg 31%
    10:00 +14°C° 0 mm 4 m/s 758 mmHg 24%
    11:00 +15°C° 0 mm 5 m/s 758 mmHg 24%
    12:00 +16°C° 0 mm 5 m/s 757 mmHg 24%
    13:00 +17°C° 0 mm 6 m/s 757 mmHg 24%
    14:00 +17°C° 0 mm 7 m/s 756 mmHg 28%
    15:00 +16°C° 0 mm 8 m/s 756 mmHg 32%
    16:00 +16°C° 0 mm 9 m/s 755 mmHg 35%
    17:00 +13°C° 0 mm 9 m/s 755 mmHg 42%
    18:00 +12°C° 0 mm 9 m/s 756 mmHg 49%
    19:00 +10°C° 0 mm 9 m/s 756 mmHg 56%
    20:00 +10°C° 0 mm 8 m/s 756 mmHg 55%
    21:00 +10°C° 0 mm 7 m/s 756 mmHg 54%
    22:00 +9°C° 0 mm 6 m/s 756 mmHg 53%
    23:00 +9°C° 0 mm 5 m/s 756 mmHg 51%
    Arată mai mult